Location: ???????
(54.9996°N, 37.9529°E)
Time: 04:30:43
(UTC+00:00)

Cosmos 192 - Pass Details

Date: 14 April 2024
Orbit: 699 x 710 km, 74.0° (Epoch: 23 May)

Event Time Altitude Azimuth Distance (km) Brightness Sun altitude
Rises 00:25:42 0° 330° (NNW) 3,097 7.8 -15.6°
Reaches altitude 10° 00:28:03 10° 327° (NNW) 2,175 7.0 -15.4°
Maximum altitude 00:32:52 59° 249° (WSW) 814 4.3 -14.9°
Drops below altitude 10° 00:37:39 10° 171° (S) 2,165 6.5 -14.4°
Sets 00:39:59 0° 167° (SSE) 3,080 7.4 -14.1°
